Regional Weather Roundup
Issued by NWS

Home | Current Version | Previous Version | Graphics & Text | Print | Product List | Glossary On
Versions: 1 2 3 4 5 6 7 8 9 10 11 12 13 14 15 16 17 18 19 20 21 22 23 24 25 26 27 28 29 30 31 32 33 34 35 36 37 38 39 40 41 42 43 44 45 46 47 48 49 50
000
ASUS43 KLOT 042321
RWRIL

ILLINOIS REGIONAL WEATHER ROUNDUP
NATIONAL WEATHER SERVICE CHICAGO/ROMEOVILLE IL
600 PM CDT TUE AUG 04 2015

NOTE: "FAIR" INDICATES FEW OR NO CLOUDS BELOW 12,000 FEET WITH NO
SIGNIFICANT WEATHER AND/OR OBSTRUCTIONS TO VISIBILITY.

* THESE STATIONS ARE NOT UNDER NWS QUALITY CONTROL. THEY ALSO MAY NOT
  REPORT WEATHER SUCH AS PRECIPITATION OR FOG.

ILZ001-002-007-009-015-016-024-050000-
NORTHWEST ILLINOIS

CITY           SKY/WX    TMP DP  RH WIND       PRES   REMARKS
MOLINE         PTSUNNY   81  60  48 W3        29.95S HX  82
STERLING*      SUNNY     81  59  47 N5        29.93S HX  81
SAVANNA*       MOSUNNY   80  52  36 CALM      29.95F HX  80
$$

ILZ003-004-008-010-011-017-018-050000-
NORTH CENTRAL ILLINOIS

CITY           SKY/WX    TMP DP  RH WIND       PRES   REMARKS
ROCKFORD       PTSUNNY   79  52  38 NW7       29.97F
FREEPORT*      MOSUNNY   74  56  52 N5        29.97F
ROCHELLE*      MOSUNNY   77  57  49 N3        29.96F
DE KALB*       PTSUNNY   77  54  44 NW7       29.97F
PERU*          PTSUNNY   78  55  44 NW6       29.97S
$$

ILZ005-006-012>014-019>023-050000-
NORTHEAST ILLINOIS

CITY           SKY/WX    TMP DP  RH WIND       PRES   REMARKS
CHICAGO-OHARE  PTSUNNY   80  51  36 NW8       29.94F HX  80
CHICAGO-MIDWAY PTSUNNY   81  52  36 W9        29.94F HX  80
AURORA         PTSUNNY   78  54  43 NW8       29.96F
LANSING*       CLOUDY    79  53  39 NW7       29.95F
JOLIET*        CLOUDY    80  57  44 N5        29.94F HX  80
WAUKEGAN       PTSUNNY   76  55  48 VRB5      29.95F
DUPAGE AIRPORT PTSUNNY   79  54  41 N12       29.95F
KANKAKEE*      PTSUNNY   78  57  49 NW5       29.96F
WHEELING       PTSUNNY   77  53  43 N9        29.96F
MORRIS*        CLOUDY    79  58  48 NW5       29.94F HX  80
ROMEOVILLE*    CLOUDY    78  53  41 NW8       29.95F
NORTHERLY ISL    N/A     75  63  66 E6          N/A
$$

LMZ740>746-050000-
SOUTHERN LAKE MICHIGAN

STATION/POSITION SKY/WX   TEMP    WIND        PRES    VSBY  WAVE
                          AIR SEA DIR/SP/G                  HT/PER
                          (F)     (DEG/KT/KT) (MB)    (MI)  (FT/S)
HARRISON CRIB              74      40/  7/ 10   N/A
BURNHAM HARBOR             75      70/  6/  9   N/A
CALUMET HARBOR             76      60/  6/  9   N/A
BURNS HARBOR               77      60/  7/  8 1014.9F
MICHIGAN CITY              75      20/  3/  4   N/A
MICHIGAN CITY 6N           76 76   70/  4/  6   N/A           1
ST. JOSEPH                 74 74  330/  2/  2   N/A           1
$$

ILZ025>027-034>036-040-047-049-050-058-095>099-050000-
WEST-CENTRAL ILLINOIS

CITY           SKY/WX    TMP DP  RH WIND       PRES   REMARKS
QUINCY         CLOUDY    77  62  59 E7        29.96F
GALESBURG*       N/A    N/A N/A N/A MISG        N/A
MACOMB*        PTSUNNY   77  60  55 SE3       29.99F
JACKSONVILLE*  CLOUDY    78  64  61 NE3       29.96F HX  80
PITTSFIELD*    CLOUDY    77  65  66 NE6       29.97F
$$

ILZ028>032-037-038-041>044-048-051>054-059>061-050000-
CENTRAL ILLINOIS

CITY           SKY/WX    TMP DP  RH WIND       PRES   REMARKS
PONTIAC        CLOUDY    77  64  64 CALM      29.97S
BLOOMINGTON    PTSUNNY   81  62  52 NE5       29.99S HX  82
DECATUR        PTSUNNY   79  60  52 N3        29.98S HX  80
PEORIA         CLOUDY    81  61  50 NW3       29.97F HX  82
LACON*         CLOUDY    78  60  52 NW5       29.96S
LINCOLN*       PTSUNNY   81  59  47 CALM      29.97S HX  81
SPRINGFIELD    PTSUNNY   79  61  53 N7        29.97F HX  80
TAYLORVILLE    PTSUNNY   75  63  64 CALM      29.97F
$$

ILZ033-039-045-046-055>057-062-063-050000-
EAST-CENTRAL ILLINOIS

CITY           SKY/WX    TMP DP  RH WIND       PRES   REMARKS
CHAMPAIGN      PTSUNNY   78  60  53 W3        29.98F
DANVILLE*      MOSUNNY   77  63  61 W5        29.94S
RANTOUL*       MOSUNNY   81  61  49 NW7       29.97S HX  82
MATTOON        PTSUNNY   77  63  61 SW6       29.97F
PARIS*         PTSUNNY   80  57  46 CALM      29.97F HX  80
$$

ILZ079-100>102-050000-
SOUTHWEST ILLINOIS

CITY           SKY/WX    TMP DP  RH WIND       PRES   REMARKS
ALTON          PTSUNNY   81  70  69 NE6       29.95F HX  84
BELLEVILLE     SUNNY     83  74  73 N2        29.94F HX  89
CAHOKIA*       CLOUDY    85  71  63 E8        29.94F HX  90
SPARTA*        CLOUDY    79  70  73 SE6       29.96F HX  81
$$

ILZ064>066-069>071-074>076-080>082-084>086-088>090-092>094-050000-
SOUTH-CENTRAL ILLINOIS

CITY           SKY/WX    TMP DP  RH WIND       PRES   REMARKS
CARBONDALE     CLOUDY    81  69  67 CALM      29.94F HX  84
CAIRO*         CLOUDY    87  73  62 CALM      29.93S HX  94
EFFINGHAM*     PTSUNNY   77  63  60 N3        29.99F
MARION         CLOUDY    82  68  61 NE6       29.96F HX  85
MT. VERNON     CLOUDY    73  66  78 E6        29.97S
CENTRALIA*     CLOUDY    79  68  68 SE7       29.97S HX  81
SALEM*         CLOUDY    83  69  63 NE3       29.97F HX  86
METROPOLIS*    CLOUDY    88  77  68 W3        29.94S HX 100
$$

ILZ067-068-072-073-078-083-087-091-050000-
SOUTHEAST ILLINOIS

CITY           SKY/WX    TMP DP  RH WIND       PRES   REMARKS
LAWRENCEVILLE  PTSUNNY   79  66  64 N3        29.99R HX  81
FLORA*         PTSUNNY   77  67  73 E5        29.98F
FAIRFIELD*     CLOUDY    71  71  99 E3        29.96F
HARRISBURG*    CLOUDY    74  67  77 NE7       29.99R
ROBINSON*      PTSUNNY   76  67  74 CALM      30.00R
CARMI*         LGT RAIN  69  64  83 E10       29.98F
$$

ABBREVIATIONS USED IN REMARKS
   TC - TEMPERATURE IN CELSIUS
  WCI - WIND CHILL INDEX
   HX - HEAT INDEX
  VSB - VISIBILITY
$$



USA.gov is the U.S. government's official web portal to all federal, state and local government web resources and services.